{"data":{"norad_id":45440,"epoch":"2026-05-25T03:12:14.721408Z","epoch_age_seconds":53594,"freshness":"FRESH","line1":"1 45440U 20020S   26145.13350372  .00000084  00000+0  19991-3 0  9996","line2":"2 45440  87.8926  25.6229 0001828  84.3194 275.8143 13.11909388299679","mean_motion":13.11909388,"eccentricity":0.0001828,"inclination_deg":87.8926,"raan_deg":25.6229,"arg_perigee_deg":84.3194,"mean_anomaly_deg":275.8143,"bstar":0.00019991,"rev_number":29967,"period_min":109.76367828233,"perigee_km":1214.3936150528,"apogee_km":1217.16995176,"semimajor_km":7593.9187834064,"source":"CELESTRAK","updated_at":"2026-05-25T13:38:22.344214Z"}}